Lihue, HI

11:39 AM HST on June 22, 2017 (GMT -1000)
Lihue

Weather History for PHLI - April, 2012

Change the Weather History Date:

Saturday, April 28, 2012

  Actual Average Record
Temperature  
Mean Temperature 78 °F 75 °F  
Max Temperature 83 °F 80 °F 86 °F (2016)
Min Temperature 73 °F 69 °F 61 °F (2004)
Degree Days  
Heating Degree Days 0 0  
Month to date heating degree days 0 0  
Since 1 July heating degree days 0 0  
Cooling Degree Days 13 9  
Month to date cooling degree days 280 251  
Year to date cooling degree days 1029 885  
Growing Degree Days 26 (Base 50)    
Moisture  
Dew Point 66 °F    
Average Humidity 69    
Maximum Humidity 79    
Minimum Humidity 58    
Precipitation  
Precipitation T in 0.06 in 1.45 in (1954)
Month to date precipitation 0.37 2.12  
Year to date precipitation 31.75 13.64  
Snow  
Snow 0.00 in - - ()
Month to date snowfall 0.0  
Since 1 July snowfall 0.0  
Snow Depth 0.00 in    
Sea Level Pressure  
Sea Level Pressure 30.12 in    
Wind  
Wind Speed 17 mph (East)    
Max Wind Speed 23 mph    
Max Gust Speed 26 mph    
Visibility 10 miles    
Events      
T = Trace of Precipitation, MM = Missing Value Source: NWS Daily Summary

Daily Weather History Graph

Daily Weather History Graph

Search for Another Location

Airport or City:

Trip Planner

Search our weather history database for the weather conditions in past years. The results will help you decide how hot, cold, wet, or windy it might be!

Date:

Astronomy

Apr. 28, 2012 Rise Set
Actual Time 6:07 AM HST 7:02 PM HST
Civil Twilight 5:43 AM HST 7:25 PM HST
Nautical Twilight 5:16 AM HST 7:53 PM HST
Astronomical Twilight 4:48 AM HST 8:21 PM HST
Moon 12:00 PM HST (4/28) 12:30 AM HST (4/28)
Length of Visible Light 13h 42m
Length of Day
12h 55m
Waxing Crescent, 45% of the Moon is Illuminated
Apr 28
Waxing Crescent
Apr 28
First Quarter
May 5
Full
May 12
Last Quarter
May 20
New

Hourly Weather History & Observations

Time (HST) Temp. Heat Index Dew Point Humidity Pressure Visibility Wind Dir Wind Speed Gust Speed Precip Events Conditions
12:08 AM 73.4 °F - 66.2 °F 78% 30.11 in 10.0 mi East 16.1 mph - N/A   Overcast
12:53 AM 73.9 °F - 66.0 °F 76% 30.10 in 10.0 mi East 17.3 mph - N/A   Partly Cloudy
1:34 AM 73.4 °F - 66.2 °F 78% 30.10 in 10.0 mi East 15.0 mph - N/A   Overcast
1:53 AM 73.9 °F - 66.9 °F 79% 30.08 in 10.0 mi East 17.3 mph - N/A   Overcast
2:53 AM 73.9 °F - 66.0 °F 76% 30.07 in 10.0 mi East 17.3 mph - N/A   Mostly Cloudy
3:53 AM 73.9 °F - 66.0 °F 76% 30.06 in 10.0 mi East 17.3 mph - N/A   Mostly Cloudy
4:42 AM 73.4 °F - 66.2 °F 78% 30.08 in 10.0 mi East 16.1 mph 25.3 mph N/A   Mostly Cloudy
4:53 AM 73.9 °F - 66.0 °F 76% 30.07 in 10.0 mi East 17.3 mph - N/A   Mostly Cloudy
5:15 AM 73.4 °F - 66.2 °F 78% 30.09 in 10.0 mi East 17.3 mph - N/A   Scattered Clouds
5:53 AM 73.0 °F - 64.9 °F 76% 30.09 in 10.0 mi East 16.1 mph - N/A   Partly Cloudy
6:49 AM 73.4 °F - 66.2 °F 78% 30.12 in 10.0 mi East 17.3 mph - 0.00 in   Mostly Cloudy
6:53 AM 73.9 °F - 66.9 °F 79% 30.12 in 10.0 mi East 19.6 mph - 0.00 in   Overcast
7:44 AM 75.2 °F - 64.4 °F 69% 30.14 in 10.0 mi East 17.3 mph - N/A   Scattered Clouds
7:53 AM 75.9 °F - 66.0 °F 71% 30.14 in 10.0 mi East 18.4 mph - N/A   Mostly Cloudy
8:53 AM 77.0 °F - 66.0 °F 69% 30.15 in 10.0 mi East 17.3 mph - N/A   Scattered Clouds
9:53 AM 80.1 °F 82.3 °F 66.9 °F 64% 30.15 in 10.0 mi East 18.4 mph - N/A   Partly Cloudy
10:53 AM 80.1 °F 82.3 °F 66.9 °F 64% 30.15 in 10.0 mi East 17.3 mph - N/A   Scattered Clouds
11:53 AM 80.1 °F 82.1 °F 66.0 °F 62% 30.14 in 10.0 mi East 16.1 mph - N/A   Scattered Clouds
12:53 PM 81.0 °F 83.3 °F 66.9 °F 62% 30.12 in 10.0 mi East 17.3 mph - N/A   Partly Cloudy
1:53 PM 82.0 °F 84.5 °F 66.9 °F 60% 30.11 in 10.0 mi East 15.0 mph - N/A   Partly Cloudy
2:53 PM 80.1 °F 82.1 °F 66.0 °F 62% 30.10 in 10.0 mi East 15.0 mph - N/A   Clear
3:53 PM 79.0 °F - 66.9 °F 66% 30.09 in 10.0 mi East 15.0 mph - N/A   Clear
4:53 PM 77.0 °F - 66.9 °F 71% 30.10 in 10.0 mi East 15.0 mph - N/A   Clear
5:53 PM 75.9 °F - 66.0 °F 71% 30.11 in 10.0 mi ENE 13.8 mph - N/A   Clear
6:53 PM 75.0 °F - 66.9 °F 76% 30.12 in 10.0 mi ENE 12.7 mph - N/A   Overcast
7:53 PM 75.0 °F - 66.0 °F 73% 30.14 in 10.0 mi ENE 13.8 mph - N/A   Overcast
8:17 PM 75.2 °F - 66.2 °F 73% 30.15 in 10.0 mi ENE 15.0 mph - N/A   Overcast
8:53 PM 73.9 °F - 66.0 °F 76% 30.15 in 10.0 mi ENE 13.8 mph - N/A   Mostly Cloudy
9:36 PM 73.4 °F - 66.2 °F 78% 30.18 in 10.0 mi ENE 13.8 mph - N/A   Mostly Cloudy
9:53 PM 75.0 °F - 66.0 °F 73% 30.17 in 10.0 mi ENE 13.8 mph - N/A   Mostly Cloudy
10:14 PM 75.2 °F - 66.2 °F 73% 30.18 in 10.0 mi ENE 16.1 mph - N/A   Mostly Cloudy
10:53 PM 73.9 °F - 66.0 °F 76% 30.18 in 10.0 mi ENE 16.1 mph - N/A   Mostly Cloudy
11:07 PM 73.4 °F - 66.2 °F 78% 30.18 in 10.0 mi ENE 16.1 mph - N/A   Mostly Cloudy
11:26 PM 73.4 °F - 66.2 °F 78% 30.18 in 10.0 mi ENE 15.0 mph - N/A   Mostly Cloudy
11:53 PM 73.9 °F - 66.0 °F 76% 30.17 in 10.0 mi East 15.0 mph - N/A   Mostly Cloudy